Location: Fornova de Taro
(44.7000°N, 10.1000°E)
Time: 19:47:45
(UTC+00:00)

Lacrosse 5 rocket - Pass Details

Date: 26 May 2022
Orbit: 456 x 629 km, 57.0° (Epoch: 02 July)

Event Time Altitude Azimuth Distance (km) Brightness Sun altitude
Exits shadow 01:23:31 44° 186° (S) 708 1.4 -18.1°
Maximum altitude 01:24:25 58° 134° (SE) 601 1.4 -18.0°
Drops below altitude 10° 01:28:23 10° 55° (NE) 1,796 5.0 -17.7°
Sets 01:30:42 0° 51° (NE) 2,724 6.3 -17.4°
